EZY28W EGCC-LEPA

Flight info

Callsign EZY28W
Flight time N/A
Altitude 37000
Route LISTO P18 TELBA L151 KIDLI UN859 SOPIL DCT BALAN DCT EVPOK DCT NARAK DCT GAI DCT LOMRA DCT ROCAN DCT IBRAP DCT LUKEV DCT LORES
Aircraft A320/M-SDE3FGHIRWY/LB1

Departure

Time N/A
Airport Manchester Airport (EGCC)

Arrival

Time 2026-05-03 20:25
Airport Palma de Mallorca Airport (LEPA)
Time Latitude Longitude Altitude Speed Heading
2026-05-03 20:15 39.86196 3.31475 8014 ft 295 kts 126°
2026-05-03 20:15 39.84804 3.33360 8020 ft 287 kts 152°
2026-05-03 20:15 39.82980 3.34209 8016 ft 276 kts 179°
2026-05-03 20:15 39.81131 3.33875 8016 ft 267 kts 206°
2026-05-03 20:16 39.79670 3.32473 8019 ft 261 kts 233°
2026-05-03 20:16 39.78792 3.30414 8020 ft 261 kts 246°
2026-05-03 20:16 39.78078 3.28265 8019 ft 262 kts 247°
2026-05-03 20:16 39.77374 3.26086 8019 ft 262 kts 247°
2026-05-03 20:17 39.76672 3.23905 8019 ft 262 kts 247°
2026-05-03 20:17 39.75969 3.21718 8009 ft 262 kts 247°
2026-05-03 20:17 39.75270 3.19533 8015 ft 261 kts 247°
2026-05-03 20:17 39.74640 3.17322 8018 ft 261 kts 249°
2026-05-03 20:18 39.73866 3.15187 8018 ft 261 kts 241°
2026-05-03 20:18 39.72930 3.13169 8002 ft 261 kts 239°
2026-05-03 20:18 39.71964 3.11138 7455 ft 266 kts 239°
2026-05-03 20:18 39.71001 3.09085 6922 ft 263 kts 239°
2026-05-03 20:19 39.70061 3.07073 6398 ft 258 kts 239°
2026-05-03 20:19 39.69140 3.05101 5860 ft 252 kts 238°
2026-05-03 20:19 39.68245 3.03188 5284 ft 244 kts 238°
2026-05-03 20:19 39.67364 3.01309 4645 ft 242 kts 238°
2026-05-03 20:20 39.66497 2.99458 4125 ft 236 kts 238°
2026-05-03 20:20 39.65664 2.97681 3786 ft 224 kts 238°
2026-05-03 20:20 39.64887 2.96025 3517 ft 206 kts 237°
2026-05-03 20:20 39.64172 2.94500 3237 ft 190 kts 237°
2026-05-03 20:21 39.63497 2.93064 2992 ft 183 kts 237°
2026-05-03 20:21 39.62866 2.91719 2753 ft 167 kts 237°
2026-05-03 20:21 39.62276 2.90464 2543 ft 160 kts 236°
2026-05-03 20:21 39.61703 2.89247 2354 ft 157 kts 236°
2026-05-03 20:22 39.61137 2.88045 2128 ft 156 kts 236°
2026-05-03 20:22 39.60579 2.86858 1920 ft 156 kts 236°
2026-05-03 20:22 39.60022 2.85675 1711 ft 148 kts 236°
2026-05-03 20:22 39.59504 2.84573 1513 ft 139 kts 235°
2026-05-03 20:23 39.59005 2.83514 1338 ft 136 kts 235°
2026-05-03 20:23 39.58511 2.82466 1156 ft 137 kts 234°
2026-05-03 20:23 39.58017 2.81420 979 ft 136 kts 235°
2026-05-03 20:23 39.57519 2.80366 775 ft 139 kts 237°
2026-05-03 20:24 39.56997 2.79296 563 ft 141 kts 239°
2026-05-03 20:24 39.56491 2.78190 427 ft 144 kts 239°
2026-05-03 20:24 39.55963 2.77076 243 ft 146 kts 238°
2026-05-03 20:24 39.55435 2.75949 41 ft 145 kts 238°
2026-05-03 20:25 39.54972 2.74965 29 ft 110 kts 239°
2026-05-03 20:25 39.54628 2.74242 34 ft 79 kts 239°
2026-05-03 20:25 39.54455 2.73873 33 ft 27 kts 237°
2026-05-03 20:25 39.54465 2.73740 34 ft 14 kts 326°
2026-05-03 20:26 39.54490 2.73722 35 ft 0 kts 330°
2026-05-03 20:27 39.54536 2.73687 35 ft 14 kts 330°
2026-05-03 20:27 39.54576 2.73631 36 ft 3 kts 215°
2026-05-03 20:28 39.54516 2.73556 34 ft 22 kts 245°
2026-05-03 20:28 39.54434 2.73386 37 ft 21 kts 236°
2026-05-03 20:28 39.54382 2.73257 38 ft 17 kts 241°
2026-05-03 20:28 39.54371 2.73163 38 ft 10 kts
2026-05-03 20:29 39.54423 2.73185 38 ft 10 kts
2026-05-03 20:29 39.54461 2.73182 37 ft 1 kts 352°
2026-05-03 20:29 39.54471 2.73179 38 ft 0 kts 351°
2026-05-03 20:30 39.54472 2.73179 38 ft 0 kts 351°